{"data":{"norad_id":48063,"intl_designator":"2021-025X","name":"ONEWEB-0164","alt_names":[],"object_type":"PAYLOAD","status":"ACTIVE","operator":null,"country":"UK","launch_date":"2021-03-25","launch_site_code":"VOSTO","launch_vehicle":null,"mission":null,"orbit_class":"UNKNOWN","rcs_meters":null,"size_class":null,"mass_kg":null,"dimensions":null,"purposes":["comms"],"wikipedia_slug":null,"has_3d_model":false,"image_url":null,"decayed_at":null,"tle_current":{"epoch":"2026-05-25T00:20:38.033376Z","epoch_age_seconds":69851,"freshness":"FRESH","line1":"1 48063U 21025X   26145.01432909  .00000199  00000+0  51080-3 0  9992","line2":"2 48063  87.8950 324.8354 0001800  89.1438 270.9897 13.13468878250548","mean_motion":13.13468878,"eccentricity":0.00018,"inclination_deg":87.895,"raan_deg":324.8354,"arg_perigee_deg":89.1438,"mean_anomaly_deg":270.9897,"bstar":0.0005108,"rev_number":25054,"period_min":109.63335516504,"perigee_km":1208.4038978817,"apogee_km":1211.1355443013,"semimajor_km":7587.9067210915,"source":"CELESTRAK","updated_at":"2026-05-25T13:38:22.392077Z"}}}